| time (UTC) | temp F | wind direction | speed knots | gust knots | rain 1hr in | rain 24hr in | rain mn in | humidity % | barometer mb |
| 20260503185639 | 60 | 35 | 0.0 | 0.9 | 0.00 | 0.00 | 0.00 | 93 | 999.3 |
| 20260503184635 | 60 | 35 | 0.0 | 0.0 | 0.00 | 0.00 | 0.00 | 92 | 999.3 |
| 20260503183636 | 60 | 35 | 0.0 | 0.9 | 0.00 | 0.00 | 0.00 | 92 | 999.3 |
| 20260503182636 | 60 | 35 | 0.0 | 0.9 | 0.00 | 0.00 | 0.00 | 92 | 999.3 |
| 20260503181631 | 60 | 35 | 0.0 | 0.9 | 0.00 | 0.00 | 0.00 | 92 | 999.1 |
| 20260503180629 | 60 | 35 | 0.0 | 0.9 | 0.00 | 0.00 | 0.00 | 92 | 999.2 |
| 20260503175626 | 60 | 35 | 0.0 | 0.9 | 0.00 | 0.00 | 0.00 | 92 | 999.3 |
| 20260503174626 | 60 | 35 | 0.0 | 1.7 | 0.00 | 0.00 | 0.00 | 91 | 999.3 |
| 20260503173628 | 60 | 52 | 0.0 | 0.9 | 0.00 | 0.00 | 0.00 | 91 | 999.3 |
| 20260503172628 | 60 | 52 | 0.0 | 1.7 | 0.00 | 0.00 | 0.00 | 91 | 999.4 |
| 20260503171626 | 61 | 22 | 0.0 | 0.9 | 0.00 | 0.00 | 0.00 | 91 | 999.6 |
| 20260503170629 | 61 | 22 | 0.0 | 0.0 | 0.00 | 0.00 | 0.00 | 90 | 999.6 |
| 20260503150621 | 63 | 151 | 0.0 | 5.2 | 0.00 | 0.00 | 0.00 | 90 | 1000.4 |
| 20260503130613 | 65 | 5 | 0.0 | 1.7 | 0.00 | 0.00 | 0.00 | 89 | 1001.5 |
| 20260503110603 | 66 | 279 | 0.9 | 4.3 | 0.00 | 0.00 | 0.00 | 88 | 1001.9 |
| 20260503100104 | 67 | 342 | 1.7 | 5.2 | 0.00 | 0.00 | 0.00 | 88 | 1001.6 |
| 20260503081555 | 68 | 113 | 1.7 | 5.2 | 0.00 | 0.00 | 0.00 | 85 | 1001.6 |
| 20260503080555 | 68 | 82 | 0.9 | 6.1 | 0.00 | 0.00 | 0.00 | 84 | 1001.7 |
| 20260503071554 | 70 | 129 | 0.9 | 5.2 | 0.00 | 0.00 | 0.00 | 80 | 1001.4 |
| 20260503070554 | 70 | 142 | 1.7 | 7.8 | 0.00 | 0.00 | 0.00 | 80 | 1001.5 |
| 20260503054545 | 75 | 40 | 0.9 | 7.8 | 0.00 | 0.00 | 0.00 | 72 | 1001.8 |
| 20260503053545 | 75 | 66 | 2.6 | 6.1 | 0.00 | 0.00 | 0.00 | 72 | 1001.9 |
| 20260503052547 | 76 | 205 | 1.7 | 6.1 | 0.00 | 0.00 | 0.00 | 71 | 1001.9 |
| 20260503051545 | 76 | 146 | 1.7 | 7.8 | 0.00 | 0.00 | 0.00 | 70 | 1001.9 |
| 20260503050559 | 76 | 207 | 0.9 | 4.3 | 0.00 | 0.00 | 0.00 | 70 | 1002.0 |
| 20260503045545 | 77 | 333 | 0.9 | 3.5 | 0.00 | 0.00 | 0.00 | 70 | 1002.1 |
| 20260503044544 | 77 | 128 | 1.7 | 7.8 | 0.00 | 0.00 | 0.00 | 69 | 1002.1 |
| 20260503044045 | 78 | 70 | 0.9 | 3.5 | 0.00 | 0.00 | 0.00 | 67 | 1002.2 |
| 20260503042543 | 78 | 78 | 0.9 | 3.5 | 0.00 | 0.00 | 0.00 | 65 | 1002.2 |
| 20260503041541 | 78 | 137 | 1.7 | 6.1 | 0.00 | 0.00 | 0.00 | 65 | 1002.3 |
| 20260503040540 | 78 | 94 | 0.9 | 4.3 | 0.00 | 0.00 | 0.00 | 65 | 1002.3 |
| 20260503035542 | 77 | 340 | 1.7 | 4.3 | 0.00 | 0.00 | 0.00 | 65 | 1002.4 |
| 20260503034541 | 77 | 86 | 1.7 | 5.2 | 0.00 | 0.00 | 0.00 | 65 | 1002.4 |
| 20260503033542 | 77 | 343 | 1.7 | 6.1 | 0.00 | 0.00 | 0.00 | 65 | 1002.5 |
| 20260503033059 | 76 | 117 | 0.9 | 5.2 | 0.00 | 0.00 | 0.00 | 65 | 1002.7 |
| 20260503031555 | 76 | 104 | 0.9 | 7.0 | 0.00 | 0.00 | 0.00 | 65 | 1002.9 |
| 20260503030541 | 76 | 15 | 0.9 | 3.5 | 0.00 | 0.00 | 0.00 | 66 | 1003.0 |
| 20260503025542 | 76 | 109 | 1.7 | 6.1 | 0.00 | 0.00 | 0.00 | 65 | 1003.2 |
| 20260503024543 | 76 | 17 | 0.9 | 3.5 | 0.00 | 0.00 | 0.00 | 65 | 1003.4 |
| 20260503023537 | 76 | 133 | 1.7 | 7.0 | 0.00 | 0.00 | 0.00 | 65 | 1003.4 |
| 20260503022539 | 76 | 327 | 1.7 | 9.6 | 0.00 | 0.00 | 0.00 | 65 | 1003.5 |
| 20260503021537 | 76 | 142 | 1.7 | 4.3 | 0.00 | 0.00 | 0.00 | 63 | 1003.9 |
| 20260503020538 | 76 | 140 | 0.9 | 3.5 | 0.00 | 0.00 | 0.00 | 64 | 1004.0 |
| 20260503015537 | 76 | 37 | 1.7 | 8.7 | 0.00 | 0.00 | 0.00 | 64 | 1004.2 |
| 20260503014539 | 75 | 150 | 0.9 | 3.5 | 0.00 | 0.00 | 0.00 | 64 | 1004.4 |
| 20260503013538 | 75 | 46 | 0.9 | 5.2 | 0.00 | 0.00 | 0.00 | 63 | 1004.5 |
| 20260503012532 | 75 | 299 | 1.7 | 4.3 | 0.00 | 0.00 | 0.00 | 63 | 1004.6 |
| 20260503011530 | 75 | 5 | 1.7 | 9.6 | 0.00 | 0.00 | 0.00 | 63 | 1004.7 |
| 20260503010532 | 74 | 27 | 1.7 | 6.1 | 0.00 | 0.00 | 0.00 | 65 | 1004.9 |
| 20260503010035 | 74 | 306 | 1.7 | 7.8 | 0.00 | 0.00 | 0.00 | 67 | 1005.0 |
| 20260503005033 | 73 | 335 | 1.7 | 7.8 | 0.00 | 0.00 | 0.00 | 67 | 1005.2 |
| 20260503004032 | 72 | 27 | 0.9 | 7.8 | 0.00 | 0.00 | 0.00 | 71 | 1005.4 |
| 20260503002532 | 71 | 120 | 1.7 | 7.8 | 0.00 | 0.00 | 0.00 | 72 | 1005.4 |
| 20260503001532 | 71 | 41 | 1.7 | 7.8 | 0.00 | 0.00 | 0.00 | 73 | 1005.5 |
| 20260503000526 | 70 | 299 | 1.7 | 6.1 | 0.00 | 0.00 | 0.00 | 74 | 1005.7 |
| 20260502235528 | 69 | 144 | 1.7 | 7.0 | 0.00 | 0.00 | 0.00 | 77 | 1005.7 |
| 20260502234537 | 69 | 94 | 0.9 | 5.2 | 0.00 | 0.00 | 0.00 | 78 | 1005.7 |
| 20260502233527 | 68 | 36 | 1.7 | 5.2 | 0.00 | 0.00 | 0.00 | 79 | 1005.9 |
| 20260502232524 | 68 | 81 | 0.9 | 3.5 | 0.00 | 0.00 | 0.00 | 80 | 1006.1 |
| 20260502231525 | 67 | 42 | 2.6 | 10.4 | 0.00 | 0.00 | 0.00 | 81 | 1006.1 |
| 20260502231042 | 67 | 340 | 1.7 | 5.2 | 0.00 | 0.00 | 0.00 | 82 | 1006.1 |
| 20260502225525 | 66 | 80 | 0.9 | 3.5 | 0.00 | 0.00 | 0.00 | 83 | 1006.0 |
| 20260502224525 | 66 | 108 | 0.0 | 5.2 | 0.00 | 0.00 | 0.00 | 84 | 1006.1 |
| 20260502224024 | 65 | 317 | 0.9 | 4.3 | 0.00 | 0.00 | 0.00 | 85 | 1006.1 |
| 20260502223025 | 65 | 71 | 0.9 | 5.2 | 0.00 | 0.00 | 0.00 | 86 | 1005.9 |
| 20260502221523 | 64 | 44 | 0.9 | 4.3 | 0.00 | 0.00 | 0.00 | 86 | 1006.0 |
| 20260502220527 | 64 | 13 | 0.9 | 3.5 | 0.00 | 0.00 | 0.00 | 87 | 1006.0 |
| 20260502215522 | 63 | 343 | 0.9 | 2.6 | 0.00 | 0.00 | 0.00 | 88 | 1005.9 |
| 20260502215023 | 63 | 273 | 0.9 | 3.5 | 0.00 | 0.00 | 0.00 | 88 | 1005.9 |
| 20260502213521 | 62 | 5 | 0.9 | 2.6 | 0.00 | 0.00 | 0.00 | 89 | 1005.6 |
| 20260502212521 | 62 | 340 | 0.9 | 4.3 | 0.00 | 0.00 | 0.00 | 91 | 1005.4 |
| 20260502211522 | 61 | 129 | 0.9 | 4.3 | 0.00 | 0.00 | 0.00 | 91 | 1005.6 |
| 20260502210522 | 61 | 132 | 0.9 | 3.5 | 0.00 | 0.00 | 0.00 | 91 | 1005.6 |
| 20260502205521 | 61 | 65 | 0.0 | 3.5 | 0.00 | 0.00 | 0.00 | 91 | 1005.4 |
| 20260502204523 | 61 | 50 | 0.0 | 0.9 | 0.00 | 0.00 | 0.00 | 90 | 1005.4 |
| 20260502203526 | 61 | 107 | 0.0 | 0.9 | 0.00 | 0.00 | 0.00 | 90 | 1005.5 |
| 20260502202524 | 61 | 112 | 0.0 | 1.7 | 0.00 | 0.00 | 0.00 | 90 | 1005.7 |
| 20260502201524 | 61 | 103 | 0.0 | 1.7 | 0.00 | 0.00 | 0.00 | 90 | 1005.6 |
| 20260502200523 | 62 | 174 | 0.0 | 1.7 | 0.00 | 0.00 | 0.00 | 89 | 1005.5 |
| 20260502195521 | 62 | 355 | 0.0 | 3.5 | 0.00 | 0.00 | 0.00 | 89 | 1005.5 |
| 20260502194520 | 62 | 104 | 0.0 | 0.9 | 0.00 | 0.00 | 0.00 | 88 | 1005.4 |
| 20260502193521 | 62 | 107 | 0.0 | 0.9 | 0.00 | 0.00 | 0.00 | 88 | 1005.4 |
| 20260502192522 | 62 | 5 | 0.0 | 0.9 | 0.00 | 0.00 | 0.00 | 88 | 1005.4 |
| 20260502191518 | 62 | 355 | 0.0 | 1.7 | 0.00 | 0.00 | 0.00 | 88 | 1005.3 |
| 20260502190523 | 62 | 37 | 0.0 | 1.7 | 0.00 | 0.00 | 0.00 | 88 | 1005.2 |